[[{"header":{"parameterUnit":"m.s-1","parameterCategory":2,"la1":30.2991,"la2":30.254,"lo1":-89.0895,"lo2":-89.0444,"dy":0.0017,"dx":0.0017,"nx":28,"ny":28,"refTime":"2025-05-18T03:00:00:Z","depth":"0","parameterNumber":2,"parameterNumberName":"U-component_of_CURRENTS"},"data":[0,0,0,0,0,0,0,0,0,0,0,0,0,0,0,0,0,0,0,0,0,0,0,0,0,0,0,0,0,0,0,0,0,0,0,0,0,0,0,0,0,0,0,0,0,0,0,0,0,0,0,0,0,0,0,0,0,0,0.2483,0.2484,0,0.2603,0.2605,0.2607,0.2648,0.2647,0.2646,0.2644,0.2915,0.2923,0.2931,0,0,0,0,0,0,0,0,0,0,0,0,0,0.2452,0.2452,0.2483,0.2484,0.2485,0.2603,0.2605,0.2607,0.2648,0.2647,0.2645,0.2644,0.2912,0.2922,0.2932,0,0,0,0,0,0,0,0,0,0,0,0,0,0.2514,0.2452,0.2483,0.2514,0.2518,0.2602,0.2605,0.2608,0.2648,0.2647,0.2645,0.2643,0.2909,0.2921,0.2933,0.3043,0,0,0.2971,0.2976,0,0,0,0,0,0,0,0,0.251,0.2516,0.2509,0.2512,0.2516,0.2603,0.2693,0.2759,0.2649,0.2606,0.2644,0.2642,0.2821,0.2841,0.2875,0.3056,0.3067,0.2972,0.298,0.2985,0.2988,0,0,0,0,0,0,0,0.2506,0.2512,0.2538,0.251,0.2514,0.2577,0.2584,0.2706,0.273,0.261,0.2611,0.2614,0.2825,0.2863,0.2882,0.3071,0.2972,0.2983,0.299,0.2995,0.3354,0.3356,0,0,0,0,0,0,0.247,0.2507,0.2534,0.2541,0.2501,0.2578,0.2586,0.2582,0.2725,0.2742,0.2615,0.2615,0.2842,0.2867,0.2891,0.3077,0.2985,0.2996,0.3003,0.3351,0.3354,0.3356,0,0,0,0,0,0,0.2469,0.2471,0.2529,0.2522,0.2532,0.2578,0.2576,0.2585,0.2619,0.2726,0.2747,0.2636,0.2842,0.2874,0.3039,0.3086,0.3002,0.3013,0.3349,0.3352,0.3355,0.3419,0,0,0,0,0,0,0.2468,0.247,0.2471,0.2519,0.2531,0.2588,0.2577,0.2589,0.2619,0.2621,0.2753,0.2775,0.2843,0.302,0.3051,0.3101,0.3023,0.3346,0.335,0.3354,0.3414,0.3424,0.3432,0,0,0,0,0,0.2466,0.2472,0.247,0.2474,0.2525,0.2589,0.2604,0.2635,0.2622,0.2656,0.2761,0.2771,0.3064,0.3035,0.307,0.3124,0.3344,0.3349,0.3354,0.341,0.3422,0.3432,0,0,0,0,0,0,0.2469,0.2477,0.2477,0.2486,0.2535,0.2593,0.262,0.2637,0.2743,0.2747,0.284,0.2875,0.3027,0.3068,0.3032,0.3231,0.319,0.3202,0.322,0.3233,0.3241,0.3231,0.3033,0,0,0,0,0,0.2464,0.2465,0.2498,0.2512,0.2526,0.2573,0.2602,0.2626,0.2711,0.2751,0.2845,0.2949,0.3076,0.3146,0.3256,0.3393,0.3385,0.3434,0.3443,0.345,0.3463,0.3504,0.3517,0.3372,0.3372,0.3372,0,0,0.2469,0.2474,0.2476,0.2512,0.2545,0.2608,0.2589,0.2634,0.2713,0.2772,0.2919,0.2999,0.312,0.3273,0.3339,0.3315,0.3482,0.3456,0.3463,0.3471,0.351,0.3524,0.3537,0.3375,0.3374,0.3374,0,0,0.2485,0.2481,0.2491,0.2536,0.2578,0.2627,0.2636,0.2704,0.2757,0.2903,0.2963,0.3076,0.3259,0.3358,0.3432,0.3556,0.3531,0.3566,0.3617,0.3656,0.3668,0.3679,0.3657,0.3665,0.3567,0.3567,0.3567,0,0.2492,0.2511,0.2514,0.2553,0.2605,0.2635,0.2699,0.2774,0.2898,0.2964,0.2954,0.321,0.3304,0.3497,0.3541,0.358,0.3569,0.357,0.3667,0.3678,0.3688,0.3662,0.3671,0.3571,0.3571,0.357,0.357,0,0.2527,0.2557,0.2574,0.2636,0.2701,0.2759,0.285,0.2929,0.2985,0.3057,0.3226,0.3348,0.3483,0.3528,0.3594,0.3719,0.3676,0.3675,0.3636,0.3706,0.3675,0.3682,0.3576,0.3575,0.3574,0.3573,0,0,0.251,0.2581,0.259,0.2639,0.2751,0.2808,0.2948,0.3084,0.3166,0.3273,0.339,0.359,0.3594,0.3675,0.3738,0.379,0.385,0.3765,0.3766,0.3735,0.389,0.367,0.3656,0.3861,0.3863,0.3865,0.3828,0,0.2545,0.2614,0.2667,0.279,0.2844,0.2942,0.3072,0.3199,0.3302,0.3424,0.3526,0.366,0.3668,0.3726,0.3783,0.3854,0.3877,0.3857,0.3834,0.3833,0.3623,0.3661,0.3477,0.3412,0.3835,0.3836,0.3837,0,0.2568,0.2616,0.2708,0.2857,0.2892,0.298,0.317,0.3292,0.3466,0.3544,0.3657,0.3721,0.3856,0.382,0.3926,0.3908,0.3902,0.3922,0.3921,0.3701,0.3627,0.3418,0.3409,0.334,0.3848,0.3847,0.3846,0,0.2533,0.2662,0.2732,0.2782,0.2944,0.3021,0.313,0.3309,0.342,0.36,0.3663,0.3809,0.3868,0.3913,0.3934,0.3941,0.3994,0.4,0.3786,0.3768,0.3599,0.3561,0.3515,0.4043,0.4044,0.4044,0.4044,0,0.2545,0.2609,0.2708,0.2743,0.2868,0.2989,0.3138,0.3268,0.3436,0.3548,0.3688,0.3769,0.3894,0.3932,0.3946,0.3857,0.3985,0.3791,0.3753,0.3609,0.3574,0.3494,0.35,0.4042,0.4042,0.4043,0.4043,0,0.2488,0.255,0.2635,0.2779,0.2838,0.2917,0.3124,0.323,0.3377,0.3517,0.3569,0.3748,0.3777,0.3833,0.3902,0.3829,0.3673,0.3736,0.3518,0.3452,0.3141,0.3157,0.2929,0.2857,0.349,0.3484,0.3479,0,0.2461,0.2485,0.262,0.2678,0.274,0.2878,0.2989,0.3185,0.3293,0.3481,0.3536,0.3613,0.3638,0.3615,0.3538,0.3458,0.3449,0.3224,0.3204,0.3083,0.3078,0.2994,0.295,0.301,0.3002,0.2995,0.299,0,0.2417,0.2445,0.2508,0.2613,0.2718,0.2848,0.2999,0.3068,0.3272,0.3335,0.3398,0.3414,0.338,0.3218,0.3104,0.3054,0.3038,0.3075,0.3051,0.2764,0.2577,0.2501,0.3049,0.293,0.2936,0.2941,0.2944,0.2946,0.2378,0.2398,0.2466,0.2569,0.2679,0.2776,0.282,0.2942,0.3022,0.3055,0.3178,0.3085,0.2994,0.2795,0.2717,0.2461,0.2559,0.2378,0.2426,0.2365,0.2227,0.2583,0.2353,0.2355,0.2357,0.2359,0.2361,0,0.2325,0.2359,0.2439,0.2532,0.2588,0.2683,0.2801,0.2783,0.2759,0.2791,0.2764,0.2579,0.2386,0.2292,0.2028,0.1873,0.1839,0.183,0.1759,0.177,0.2174,0.2085,0.1663,0.1663,0.1663,0.1663,0.1663,0.1663,0.2307,0.2328,0.2362,0.2415,0.2468,0.2477,0.2492,0.2443,0.2428,0.225,0.21,0.2077,0.2026,0.1828,0.1594,0.154,0.1476,0.1302,0.1408,0.1791,0.185,0.1906,0.1824,0.1354,0.1353,0.0901,0.0898,0.0896]},{"header":{"parameterUnit":"m.s-1","parameterCategory":2,"la1":30.2991,"la2":30.254,"lo1":-89.0895,"lo2":-89.0444,"dy":0.0017,"dx":0.0017,"nx":28,"ny":28,"refTime":"2025-05-18T03:00:00:Z","depth":"0","parameterNumber":3,"parameterNumberName":"V-component_of_CURRENTS"},"data":[0,0,0,0,0,0,0,0,0,0,0,0,0,0,0,0,0,0,0,0,0,0,0,0,0,0,0,0,0,0,0,0,0,0,0,0,0,0,0,0,0,0,0,0,0,0,0,0,0,0,0,0,0,0,0,0,0,0,0.0165,0.0165,0,0.0124,0.0123,0.0123,0.0095,0.0095,0.0095,0.0095,0.0063,0.0062,0.0062,0,0,0,0,0,0,0,0,0,0,0,0,0,0.0191,0.019,0.0165,0.0165,0.0164,0.0124,0.0123,0.0123,0.0095,0.0095,0.0095,0.0095,0.0063,0.0062,0.0062,0,0,0,0,0,0,0,0,0,0,0,0,0,0.0167,0.019,0.0166,0.0146,0.0144,0.0124,0.0123,0.0123,0.0095,0.0095,0.0095,0.0095,0.0064,0.0063,0.0062,0.006,0,0,0.0058,0.0058,0,0,0,0,0,0,0,0,0.0169,0.0166,0.0149,0.0147,0.0145,0.0115,0.012,0.0102,0.0095,0.0113,0.0095,0.0094,0.0082,0.0079,0.0071,0.0058,0.0057,0.0058,0.0058,0.0057,0.0057,0,0,0,0,0,0,0,0.017,0.0168,0.0149,0.0149,0.0146,0.0129,0.0126,0.0117,0.0099,0.0112,0.011,0.0106,0.008,0.0072,0.007,0.0057,0.0058,0.0057,0.0057,0.0056,0.0122,0.0124,0,0,0,0,0,0,0.0178,0.017,0.015,0.0147,0.0157,0.0129,0.0125,0.0124,0.0099,0.0095,0.0106,0.0105,0.0074,0.0072,0.0069,0.0117,0.0057,0.0056,0.0056,0.012,0.0123,0.0125,0,0,0,0,0,0,0.0179,0.0177,0.0152,0.0157,0.0153,0.0129,0.0128,0.0124,0.0118,0.0095,0.0091,0.0105,0.0074,0.0071,0.0076,0.0114,0.0056,0.0055,0.0117,0.0121,0.0124,0.018,0,0,0,0,0,0,0.018,0.0177,0.018,0.0158,0.0153,0.0147,0.0128,0.0123,0.0115,0.0113,0.0092,0.0089,0.0073,0.0077,0.0075,0.0111,0.0054,0.0114,0.0119,0.0123,0.0175,0.0185,0.0194,0,0,0,0,0,0.0181,0.0189,0.018,0.0178,0.0157,0.0147,0.0143,0.0125,0.0116,0.0117,0.011,0.009,0.0105,0.0077,0.0074,0.0111,0.0112,0.0117,0.0122,0.0171,0.0183,0.0193,0,0,0,0,0,0,0.0202,0.0187,0.0176,0.018,0.0166,0.0143,0.0143,0.0129,0.0123,0.0123,0.0102,0.0098,0.012,0.0112,0.0083,0.0149,0.0112,0.0117,0.0151,0.0162,0.0171,0.0206,0.0053,0,0,0,0,0,0.0208,0.021,0.0191,0.0193,0.0189,0.0166,0.016,0.0147,0.0137,0.0133,0.0119,0.0123,0.014,0.0146,0.0147,0.0172,0.0171,0.0203,0.0212,0.022,0.0249,0.0294,0.031,0.0143,0.0143,0.0143,0,0,0.0217,0.0209,0.021,0.0198,0.0186,0.0189,0.0162,0.0157,0.0168,0.0132,0.0143,0.0142,0.0152,0.0184,0.0196,0.0181,0.0259,0.0226,0.0232,0.0259,0.0301,0.0318,0.0332,0.0146,0.0146,0.0145,0,0,0.0239,0.0229,0.0239,0.0233,0.022,0.0207,0.0209,0.0188,0.0188,0.019,0.019,0.0222,0.021,0.0252,0.0267,0.0333,0.03,0.0329,0.0407,0.0449,0.0463,0.0475,0.0455,0.0465,0.0341,0.0341,0.0341,0,0.0251,0.0262,0.024,0.025,0.0256,0.022,0.0239,0.0233,0.0217,0.0252,0.0201,0.0265,0.0256,0.0353,0.0373,0.0356,0.0347,0.0355,0.046,0.0473,0.0484,0.0461,0.0471,0.0344,0.0344,0.0344,0.0343,0,0.0282,0.0291,0.0298,0.0302,0.0303,0.0312,0.0303,0.0317,0.0303,0.0314,0.0379,0.0369,0.0422,0.0425,0.0409,0.0514,0.0466,0.0455,0.0426,0.0504,0.0474,0.0484,0.0349,0.0348,0.0347,0.0346,0,0,0.0314,0.032,0.0324,0.0344,0.0336,0.0347,0.0379,0.0423,0.0489,0.0461,0.055,0.0571,0.0577,0.0599,0.0596,0.0633,0.0678,0.058,0.0581,0.055,0.0725,0.0661,0.0664,0.0677,0.0681,0.0683,0.0654,0,0.0348,0.0384,0.0378,0.0421,0.0443,0.0444,0.0487,0.0526,0.0555,0.0627,0.0648,0.0711,0.064,0.0675,0.07,0.0702,0.0714,0.0684,0.0665,0.0664,0.059,0.0679,0.0683,0.0656,0.0663,0.0665,0.0666,0,0.0387,0.0408,0.0454,0.0508,0.0521,0.0542,0.0642,0.0678,0.0776,0.0806,0.0873,0.0878,0.0945,0.0858,0.0882,0.086,0.08,0.0774,0.0772,0.0711,0.0622,0.0591,0.0674,0.0633,0.0681,0.068,0.0678,0,0.0431,0.047,0.0513,0.0525,0.0571,0.0615,0.0649,0.0745,0.0827,0.0933,0.1007,0.1055,0.1094,0.1051,0.0962,0.0934,0.0959,0.0914,0.0793,0.0784,0.0788,0.0775,0.0832,0.0929,0.0929,0.0929,0.0929,0,0.0478,0.0516,0.0538,0.0562,0.0647,0.0662,0.0782,0.0839,0.0962,0.1098,0.11,0.1205,0.1147,0.1141,0.103,0.0939,0.1004,0.0833,0.08,0.0801,0.0791,0.0754,0.0719,0.0928,0.0928,0.0928,0.0929,0,0.0519,0.0529,0.0586,0.064,0.0664,0.0725,0.0845,0.096,0.1045,0.1222,0.1262,0.1344,0.1333,0.123,0.1171,0.1039,0.0917,0.0889,0.0857,0.0822,0.0667,0.0634,0.0641,0.0628,0.0775,0.0773,0.0772,0,0.0542,0.0571,0.0636,0.0689,0.0712,0.0801,0.0894,0.0994,0.113,0.1313,0.1421,0.146,0.1508,0.136,0.1156,0.0955,0.0889,0.0809,0.0773,0.0692,0.0632,0.0601,0.0589,0.0776,0.0775,0.0774,0.0774,0,0.059,0.0607,0.0654,0.0755,0.0843,0.096,0.1091,0.1206,0.1357,0.1494,0.1667,0.1711,0.1572,0.1403,0.1111,0.0966,0.0792,0.0783,0.075,0.0695,0.0623,0.0583,0.0709,0.0766,0.0767,0.0768,0.0768,0.0768,0.0627,0.0669,0.0733,0.0834,0.0949,0.1114,0.1227,0.1385,0.1576,0.1782,0.1818,0.1866,0.1614,0.1234,0.1052,0.0724,0.0729,0.0628,0.0604,0.0588,0.0571,0.0645,0.0634,0.0634,0.0634,0.0634,0.0634,0,0.0671,0.0724,0.082,0.095,0.1094,0.1145,0.137,0.1499,0.1711,0.1844,0.1959,0.1818,0.1531,0.1211,0.0768,0.0584,0.0536,0.0499,0.0496,0.0501,0.0621,0.0617,0.0544,0.0544,0.0544,0.0544,0.0544,0.0544,0.0699,0.0782,0.0828,0.1045,0.1157,0.1361,0.1493,0.1669,0.1794,0.1918,0.1899,0.1879,0.1629,0.096,0.0568,0.049,0.042,0.0363,0.0339,0.0447,0.0459,0.047,0.0462,0.0357,0.0357,0.0252,0.0251,0.025]}],[{"header":{"parameterUnit":"m.s-1","parameterCategory":2,"la1":30.2991,"la2":30.254,"lo1":-89.0895,"lo2":-89.0444,"dy":0.0017,"dx":0.0017,"nx":28,"ny":28,"refTime":"2025-05-18T03:00:00:Z","depth":"2","parameterNumber":2,"parameterNumberName":"U-component_of_CURRENTS"},"data":[0,0,0,0,0,0,0,0,0,0,0,0,0,0,0,0,0,0,0,0,0,0,0,0,0,0,0,0,0,0,0,0,0,0,0,0,0,0,0,0,0,0,0,0,0,0,0,0,0,0,0,0,0,0,0,0,0,0,0.2192,0.2193,0,0.2261,0.2263,0.2264,0.2307,0.2307,0.2307,0.2306,0.2397,0.24,0.2403,0,0,0,0,0,0,0,0,0,0,0,0,0,0.218,0.218,0.2192,0.2193,0.2193,0.2261,0.2263,0.2264,0.2307,0.2307,0.2307,0.2306,0.2397,0.24,0.2403,0,0,0,0,0,0,0,0,0,0,0,0,0,0.2216,0.218,0.2192,0.2218,0.2221,0.2261,0.2263,0.2265,0.2307,0.2307,0.2306,0.2306,0.2395,0.2399,0.2404,0.2439,0,0,0.2416,0.2418,0,0,0,0,0,0,0,0,0.2214,0.2218,0.2214,0.2216,0.2219,0.227,0.2292,0.2322,0.2308,0.2281,0.2306,0.2306,0.2353,0.2361,0.2383,0.2443,0.2447,0.2416,0.2419,0.2421,0.2422,0,0,0,0,0,0,0,0.2212,0.2215,0.2226,0.2214,0.2217,0.2254,0.2259,0.2298,0.2324,0.2283,0.2285,0.2283,0.2356,0.2379,0.2386,0.2448,0.2416,0.242,0.2422,0.2424,0.2656,0.2659,0,0,0,0,0,0,0.2187,0.2212,0.2224,0.2227,0.2208,0.2254,0.2259,0.2259,0.2323,0.2331,0.2283,0.2285,0.2373,0.2381,0.2389,0.2515,0.2421,0.2424,0.2427,0.2652,0.2657,0.2661,0,0,0,0,0,0,0.2186,0.2187,0.2221,0.2217,0.2223,0.2253,0.2254,0.2261,0.2286,0.2322,0.2331,0.2301,0.2372,0.2383,0.247,0.2516,0.2426,0.243,0.2648,0.2653,0.2659,0.2715,0,0,0,0,0,0,0.2186,0.2187,0.2191,0.2215,0.2222,0.2242,0.2254,0.2262,0.2282,0.2285,0.234,0.2348,0.2373,0.2464,0.2474,0.252,0.2433,0.2643,0.265,0.2657,0.2709,0.2722,0.2734,0,0,0,0,0,0.2185,0.2191,0.219,0.2192,0.2222,0.2242,0.225,0.2274,0.2284,0.2297,0.2368,0.2346,0.2515,0.2471,0.2482,0.2529,0.264,0.2648,0.2656,0.2703,0.272,0.2733,0,0,0,0,0,0,0.2194,0.2196,0.2196,0.2203,0.2216,0.2246,0.2267,0.2276,0.2341,0.2357,0.2393,0.2408,0.25,0.2516,0.2466,0.2622,0.2574,0.2585,0.2606,0.2622,0.2634,0.2666,0.2437,0,0,0,0,0,0.2192,0.2195,0.2202,0.221,0.2218,0.2243,0.2258,0.2272,0.2321,0.2348,0.2389,0.2459,0.2544,0.2581,0.2641,0.2721,0.2709,0.2763,0.2775,0.2785,0.2824,0.2862,0.2881,0.2688,0.2688,0.2688,0,0,0.2196,0.2198,0.22,0.2211,0.2232,0.2277,0.2254,0.2279,0.2331,0.2349,0.2445,0.2495,0.2577,0.268,0.2722,0.2696,0.2823,0.2796,0.2803,0.2837,0.2873,0.2891,0.2907,0.2694,0.2693,0.2692,0,0,0.2207,0.2211,0.2219,0.2236,0.2255,0.2296,0.23,0.2333,0.2362,0.2441,0.2497,0.2596,0.2673,0.2776,0.2833,0.2954,0.2885,0.2946,0.3036,0.3072,0.3087,0.3101,0.3046,0.3055,0.2954,0.2954,0.2954,0,0.2213,0.2225,0.2226,0.2248,0.2263,0.2309,0.2333,0.2399,0.2459,0.2492,0.2476,0.2672,0.2739,0.2914,0.298,0.2983,0.2947,0.2962,0.3084,0.3098,0.3111,0.3052,0.3061,0.2958,0.2957,0.2957,0.2957,0,0.2233,0.2252,0.2265,0.2319,0.2338,0.2372,0.2434,0.2495,0.2532,0.258,0.2705,0.2811,0.2927,0.2968,0.3025,0.3172,0.3092,0.3084,0.3033,0.3133,0.3065,0.3072,0.2963,0.2962,0.2961,0.296,0,0,0.2223,0.2269,0.2274,0.2304,0.2368,0.2398,0.2499,0.2589,0.2681,0.2744,0.2841,0.3027,0.306,0.3135,0.3203,0.3273,0.3336,0.3229,0.3229,0.315,0.3333,0.3145,0.3134,0.3323,0.3326,0.3329,0.3223,0,0.2242,0.2283,0.2297,0.238,0.2414,0.2474,0.2573,0.2663,0.2741,0.2866,0.2976,0.311,0.3129,0.3204,0.3279,0.3336,0.3369,0.3361,0.3272,0.3269,0.3072,0.3144,0.2925,0.2802,0.323,0.3231,0.3232,0,0.2251,0.2281,0.232,0.241,0.243,0.2503,0.2644,0.2742,0.2923,0.2965,0.3092,0.3171,0.3342,0.333,0.3425,0.3399,0.3391,0.3403,0.3398,0.3223,0.31,0.279,0.28,0.3244,0.3243,0.3242,0.3242,0,0.2228,0.2304,0.2334,0.236,0.2476,0.2518,0.262,0.2769,0.2849,0.3057,0.3119,0.3274,0.3368,0.3398,0.3426,0.3424,0.3467,0.3449,0.3256,0.3237,0.3041,0.3,0.3514,0.3514,0.3514,0.3514,0.3515,0,0.2229,0.2267,0.2342,0.2364,0.2453,0.2527,0.2659,0.2769,0.2926,0.3027,0.3188,0.3261,0.3397,0.343,0.3426,0.3334,0.3442,0.3288,0.3225,0.3046,0.3009,0.3406,0.3395,0.351,0.3511,0.3512,0.3513,0,0.2184,0.2231,0.2286,0.2392,0.2434,0.2506,0.2657,0.277,0.2912,0.3043,0.3106,0.3261,0.3277,0.3334,0.3379,0.3309,0.3266,0.3208,0.2944,0.2854,0.2999,0.2993,0.2969,0.2962,0.2957,0.2952,0.2948,0,0.2162,0.2181,0.2279,0.2318,0.2364,0.2488,0.2583,0.2746,0.2835,0.3,0.3046,0.3132,0.3128,0.3085,0.3025,0.2925,0.3083,0.2665,0.2666,0.3016,0.2958,0.296,0.2962,0.2397,0.2389,0.2382,0.2377,0,0.2122,0.2152,0.2195,0.2265,0.235,0.2441,0.2571,0.261,0.279,0.285,0.2871,0.2871,0.2856,0.2661,0.2576,0.2505,0.2663,0.2517,0.2986,0.2566,0.2468,0.2413,0.2436,0.2317,0.2323,0.2327,0.233,0.2333,0.2092,0.21,0.2151,0.2215,0.2304,0.2341,0.2358,0.2457,0.2499,0.2516,0.2597,0.2506,0.2504,0.2229,0.2104,0.2033,0.2225,0.2146,0.2171,0.2203,0.2154,0.2051,0.1806,0.1809,0.1811,0.1814,0.1816,0,0.204,0.2054,0.2103,0.2153,0.2187,0.2262,0.2314,0.2273,0.2225,0.2255,0.2209,0.1953,0.178,0.1787,0.1567,0.151,0.156,0.1455,0.153,0.1588,0.1641,0.1569,0.1063,0.1061,0.1059,0.1057,0,0,0.2015,0.2014,0.2026,0.2023,0.2053,0.2023,0.1999,0.1918,0.1893,0.1753,0.1679,0.1738,0.1752,0.1417,0.1333,0.1168,0.1388,0.1115,0.1721,0.1872,0.1923,0.2033,0.1986,0,0,0,0,0]},{"header":{"parameterUnit":"m.s-1","parameterCategory":2,"la1":30.2991,"la2":30.254,"lo1":-89.0895,"lo2":-89.0444,"dy":0.0017,"dx":0.0017,"nx":28,"ny":28,"refTime":"2025-05-18T03:00:00:Z","depth":"2","parameterNumber":3,"parameterNumberName":"V-component_of_CURRENTS"},"data":[0,0,0,0,0,0,0,0,0,0,0,0,0,0,0,0,0,0,0,0,0,0,0,0,0,0,0,0,0,0,0,0,0,0,0,0,0,0,0,0,0,0,0,0,0,0,0,0,0,0,0,0,0,0,0,0,0,0,0.004,0.0039,0,0.0001,0.0,-0.0,-0.0024,-0.0024,-0.0024,-0.0024,-0.0149,-0.0152,-0.0156,0,0,0,0,0,0,0,0,0,0,0,0,0,0.0064,0.0064,0.004,0.0039,0.0039,0.0001,0.0,-0.0,-0.0024,-0.0024,-0.0024,-0.0024,-0.0148,-0.0152,-0.0156,0,0,0,0,0,0,0,0,0,0,0,0,0,0.0042,0.0064,0.004,0.0022,0.002,0.0001,0.0,-0.0,-0.0024,-0.0024,-0.0024,-0.0024,-0.0147,-0.0152,-0.0156,-0.0182,0,0,-0.0171,-0.0173,0,0,0,0,0,0,0,0,0.0043,0.0041,0.0025,0.0023,0.0021,-0.0007,-0.0037,-0.0066,-0.0024,-0.0007,-0.0024,-0.0024,-0.011,-0.0118,-0.0123,-0.0188,-0.0194,-0.0172,-0.0175,-0.0177,-0.0178,0,0,0,0,0,0,0,0.0045,0.0043,0.0024,0.0025,0.0022,0.0006,0.0003,-0.0042,-0.0058,-0.0008,-0.001,-0.0015,-0.0111,-0.0118,-0.0126,-0.0196,-0.0172,-0.0176,-0.0179,-0.0181,-0.0263,-0.0262,0,0,0,0,0,0,0.0051,0.0044,0.0026,0.0023,0.0032,0.0006,0.0003,0.0002,-0.0056,-0.0064,-0.0014,-0.0016,-0.011,-0.0121,-0.0131,-0.0135,-0.0177,-0.0181,-0.0184,-0.0264,-0.0263,-0.0262,0,0,0,0,0,0,0.0052,0.005,0.0027,0.0032,0.0028,0.0006,0.0006,0.0002,-0.0003,-0.006,-0.007,-0.0015,-0.011,-0.0124,-0.0169,-0.0141,-0.0183,-0.0188,-0.0265,-0.0264,-0.0263,-0.0163,0,0,0,0,0,0,0.0053,0.0051,0.0054,0.0033,0.0028,0.0021,0.0006,0.0001,-0.0006,-0.0008,-0.0064,-0.0075,-0.0112,-0.0161,-0.0174,-0.0149,-0.0191,-0.0266,-0.0264,-0.0263,-0.0167,-0.0158,-0.0151,0,0,0,0,0,0.0054,0.0061,0.0054,0.0052,0.0033,0.0022,0.0018,0.0001,-0.0005,-0.0004,-0.0044,-0.0073,-0.0161,-0.0165,-0.018,-0.0155,-0.0266,-0.0265,-0.0263,-0.017,-0.016,-0.0151,0,0,0,0,0,0,0.0072,0.0058,0.0051,0.0053,0.004,0.0018,0.0017,0.0006,-0.0022,-0.0028,-0.0078,-0.0093,-0.0118,-0.0156,-0.0159,-0.0175,-0.0213,-0.0214,-0.0138,-0.0129,-0.0121,-0.0067,-0.0195,0,0,0,0,0,0.0078,0.008,0.0062,0.0064,0.006,0.004,0.0033,0.0022,-0.0006,-0.0017,-0.0053,-0.0092,-0.0123,-0.0141,-0.018,-0.0198,-0.0203,-0.0188,-0.018,-0.0173,-0.014,-0.009,-0.0073,-0.0257,-0.0257,-0.0257,0,0,0.0084,0.0078,0.0078,0.0068,0.0057,0.0057,0.0036,0.003,0.0032,-0.0029,-0.004,-0.0075,-0.0124,-0.0137,-0.015,-0.0165,-0.0138,-0.0171,-0.0165,-0.0134,-0.0086,-0.0068,-0.0051,-0.0256,-0.0256,-0.0256,0,0,0.0101,0.0095,0.0103,0.0097,0.0085,0.0071,0.0072,0.0053,0.005,0.0026,-0.0003,-0.0007,-0.0081,-0.0077,-0.0094,-0.0066,-0.0101,-0.0093,-0.0004,0.0043,0.006,0.0075,0.0039,0.005,-0.0083,-0.0082,-0.0082,0,0.0111,0.012,0.0103,0.011,0.0114,0.0082,0.0095,0.0083,0.0053,0.0079,0.0029,0.0013,-0.0038,-0.0002,0.0003,-0.0041,-0.0051,-0.0036,0.0058,0.0073,0.0087,0.0047,0.0059,-0.0077,-0.0078,-0.0078,-0.0079,0,0.0134,0.0142,0.0147,0.0148,0.0148,0.0153,0.0137,0.0148,0.0132,0.0137,0.0163,0.011,0.0115,0.0095,0.0046,0.0126,0.007,0.0061,0.0044,0.0113,0.0064,0.0074,-0.007,-0.0072,-0.0073,-0.0075,0,0,0.0161,0.0165,0.0168,0.0183,0.0173,0.0179,0.0199,0.0232,0.0285,0.0253,0.0326,0.0282,0.0283,0.0266,0.0226,0.0265,0.0315,0.0206,0.0206,0.0187,0.0365,0.0308,0.0312,0.0328,0.0332,0.0335,0.0273,0,0.0188,0.0216,0.0211,0.024,0.0256,0.0256,0.0283,0.0312,0.0335,0.0393,0.039,0.0418,0.0336,0.0348,0.0375,0.0336,0.0354,0.0329,0.0288,0.0286,0.0244,0.0328,0.0338,0.0286,0.0282,0.0284,0.0285,0,0.022,0.0235,0.0273,0.0309,0.0319,0.0332,0.0416,0.0435,0.0515,0.0543,0.0598,0.0586,0.062,0.0545,0.0536,0.0521,0.0457,0.0422,0.0419,0.0353,0.0252,0.0226,0.0303,0.0301,0.03,0.0299,0.0298,0,0.0259,0.0285,0.0321,0.033,0.036,0.0398,0.0416,0.0496,0.0565,0.0654,0.0728,0.0747,0.0763,0.0724,0.061,0.0587,0.0594,0.0549,0.0436,0.0425,0.0423,0.0409,0.0577,0.0577,0.0577,0.0577,0.0578,0,0.03,0.0328,0.0343,0.0364,0.0428,0.0433,0.0534,0.0576,0.0685,0.0802,0.0802,0.0887,0.0821,0.08,0.068,0.0578,0.064,0.0479,0.0441,0.0447,0.0437,0.045,0.0436,0.0575,0.0576,0.0576,0.0576,0,0.0338,0.0346,0.0391,0.0429,0.0447,0.0491,0.0592,0.0692,0.0766,0.0924,0.0961,0.1013,0.0974,0.0871,0.0793,0.0671,0.0576,0.0519,0.0483,0.0444,0.0344,0.0336,0.0403,0.0402,0.04,0.0399,0.0398,0,0.0361,0.0387,0.0436,0.0479,0.0498,0.0567,0.0645,0.0727,0.0852,0.0998,0.1093,0.1104,0.111,0.094,0.0764,0.0566,0.0548,0.0436,0.042,0.0388,0.0344,0.0337,0.0331,0.0416,0.0415,0.0414,0.0414,0,0.0406,0.0422,0.0459,0.0543,0.0618,0.0717,0.0827,0.0935,0.1059,0.117,0.1283,0.1283,0.1137,0.0955,0.0696,0.0563,0.0469,0.0414,0.0455,0.0457,0.0397,0.0352,0.0347,0.0408,0.0408,0.0409,0.0409,0.0409,0.0441,0.0474,0.053,0.0613,0.0714,0.0856,0.0948,0.1087,0.1239,0.1386,0.1373,0.1348,0.1168,0.0825,0.0615,0.0405,0.0424,0.0334,0.0339,0.0343,0.0356,0.0297,0.0286,0.0286,0.0286,0.0286,0.0286,0,0.048,0.0523,0.0604,0.0712,0.084,0.0884,0.1076,0.1171,0.1329,0.1412,0.1448,0.1231,0.103,0.0814,0.0505,0.0313,0.0311,0.0241,0.029,0.0297,0.0303,0.0316,0.0234,0.0233,0.0232,0.0231,0,0,0.0504,0.0574,0.061,0.0797,0.0894,0.1065,0.1172,0.1292,0.1377,0.1416,0.1385,0.1326,0.1082,0.0837,0.0595,0.0418,0.0397,0.0374,0.0438,0.0533,0.0541,0.038,0.0411,0,0,0,0,0]}],[{"header":{"parameterUnit":"m.s-1","parameterCategory":2,"la1":30.2991,"la2":30.254,"lo1":-89.0895,"lo2":-89.0444,"dy":0.0017,"dx":0.0017,"nx":28,"ny":28,"refTime":"2025-05-18T03:00:00:Z","depth":"4","parameterNumber":2,"parameterNumberName":"U-component_of_CURRENTS"},"data":[0,0,0,0,0,0,0,0,0,0,0,0,0,0,0,0,0,0,0,0,0,0,0,0,0,0,0,0,0,0,0,0,0,0,0,0,0,0,0,0,0,0,0,0,0,0,0,0,0,0,0,0,0,0,0,0,0,0,0.1417,0.1417,0,0.1252,0.1249,0.1246,0.1181,0.1184,0.1186,0.1188,0.1006,0.0999,0.0992,0,0,0,0,0,0,0,0,0,0,0,0,0,0.1411,0.1411,0.1417,0.1417,0.1417,0.1253,0.1249,0.1245,0.1181,0.1184,0.1186,0.1189,0.1008,0.1,0.0992,0,0,0,0,0,0,0,0,0,0,0,0,0,0.1329,0.1411,0.1417,0.1379,0.1375,0.1254,0.1249,0.1244,0.1181,0.1184,0.1187,0.119,0.1011,0.1001,0.099,0.0862,0,0,0.0959,0.0954,0,0,0,0,0,0,0,0,0.1334,0.1327,0.1385,0.1382,0.1377,0.1257,0.118,0.1121,0.118,0.1235,0.1188,0.1192,0.1098,0.1081,0.1016,0.0853,0.0845,0.0958,0.0952,0.0947,0.0944,0,0,0,0,0,0,0,0.134,0.1333,0.1333,0.1385,0.138,0.128,0.1272,0.1166,0.1135,0.123,0.123,0.124,0.1094,0.1026,0.1012,0.0843,0.0958,0.0949,0.0943,0.0939,0.0856,0.0859,0,0,0,0,0,0,0.1409,0.1339,0.1339,0.133,0.1384,0.128,0.127,0.1277,0.1137,0.1124,0.1237,0.1238,0.1042,0.1024,0.1005,0.0994,0.0947,0.0938,0.0932,0.0852,0.0857,0.0861,0,0,0,0,0,0,0.1409,0.141,0.1346,0.1345,0.1333,0.1281,0.1286,0.1273,0.1258,0.1146,0.113,0.1247,0.1044,0.102,0.093,0.0982,0.0933,0.0924,0.0847,0.0853,0.0859,0.0877,0,0,0,0,0,0,0.1409,0.141,0.1429,0.1351,0.1337,0.1306,0.1284,0.1268,0.1265,0.1265,0.1147,0.113,0.1044,0.0946,0.092,0.0967,0.0916,0.0842,0.085,0.0857,0.0871,0.0882,0.0892,0,0,0,0,0,0.1409,0.1425,0.143,0.1431,0.1368,0.1308,0.1288,0.1247,0.1264,0.1246,0.1164,0.1136,0.0981,0.0935,0.0905,0.0951,0.0838,0.0848,0.0856,0.0866,0.088,0.0892,0,0,0,0,0,0,0.1422,0.1419,0.1424,0.1438,0.1399,0.1306,0.1296,0.1275,0.119,0.1204,0.1101,0.1075,0.1034,0.1001,0.0956,0.0972,0.094,0.0943,0.0959,0.0971,0.0981,0.1058,0.0907,0,0,0,0,0,0.1442,0.146,0.1429,0.1439,0.1436,0.1375,0.1351,0.1328,0.1255,0.1224,0.1148,0.1099,0.1036,0.101,0.0941,0.0894,0.092,0.0945,0.0955,0.0963,0.1019,0.1113,0.1136,0.089,0.089,0.089,0,0,0.1451,0.1455,0.1464,0.1445,0.1413,0.1364,0.1364,0.1348,0.1304,0.1214,0.1138,0.1101,0.1031,0.0984,0.0975,0.0965,0.1034,0.0975,0.098,0.1033,0.1125,0.1148,0.1169,0.0896,0.0895,0.0894,0,0,0.1463,0.1487,0.1499,0.1468,0.1456,0.1395,0.1414,0.1352,0.1333,0.1255,0.1207,0.1218,0.109,0.1073,0.1041,0.1086,0.1075,0.1097,0.1202,0.1291,0.1311,0.133,0.1319,0.1337,0.1116,0.1116,0.1116,0,0.1477,0.1483,0.1486,0.1473,0.1449,0.1421,0.1394,0.1339,0.1254,0.1279,0.1259,0.12,0.1147,0.1126,0.1164,0.1108,0.1129,0.1128,0.1301,0.132,0.1339,0.1325,0.1344,0.1118,0.1118,0.1118,0.1118,0,0.147,0.1478,0.1482,0.1449,0.1413,0.1393,0.1338,0.1328,0.1325,0.1314,0.1337,0.1262,0.127,0.1267,0.1211,0.133,0.1284,0.128,0.1253,0.1364,0.1342,0.1361,0.1121,0.112,0.112,0.1119,0,0,0.1482,0.1482,0.1483,0.1462,0.141,0.1364,0.1339,0.1325,0.1351,0.1339,0.1393,0.1358,0.1422,0.1403,0.1365,0.1457,0.1573,0.145,0.1453,0.1411,0.1712,0.154,0.1543,0.1597,0.1603,0.1607,0.1612,0,0.1472,0.1453,0.145,0.1386,0.1356,0.1345,0.1315,0.1317,0.1329,0.1367,0.1427,0.1441,0.1431,0.1456,0.1551,0.1573,0.1642,0.1569,0.1639,0.164,0.1453,0.1569,0.1625,0.1627,0.1631,0.1635,0.1637,0,0.1449,0.1437,0.141,0.1377,0.1371,0.1337,0.1334,0.1308,0.1391,0.1437,0.1531,0.155,0.1665,0.1647,0.1783,0.1738,0.1762,0.1776,0.1776,0.1645,0.151,0.1519,0.1672,0.167,0.1667,0.1665,0.1662,0,0.1423,0.1394,0.1375,0.1354,0.1317,0.1344,0.1335,0.1383,0.1408,0.1513,0.1583,0.1683,0.1747,0.1841,0.1885,0.1861,0.202,0.1971,0.1816,0.1797,0.1933,0.1914,0.2101,0.2101,0.2101,0.2101,0.2101,0,0.1388,0.1367,0.1377,0.1361,0.134,0.1345,0.1355,0.1399,0.1498,0.1554,0.1643,0.1686,0.1826,0.1901,0.1934,0.1932,0.206,0.1872,0.1827,0.1928,0.191,0.194,0.1922,0.2101,0.2101,0.2101,0.2101,0,0.1354,0.1365,0.1333,0.1336,0.1333,0.1327,0.1356,0.1375,0.1499,0.1578,0.1635,0.1758,0.1843,0.1907,0.2026,0.1964,0.1989,0.1945,0.2009,0.1959,0.1678,0.1661,0.1777,0.1771,0.1767,0.1763,0.176,0,0.133,0.1325,0.1313,0.1285,0.1296,0.1284,0.128,0.1372,0.1402,0.1583,0.1627,0.1758,0.1807,0.1824,0.1902,0.1913,0.1891,0.186,0.1831,0.172,0.1664,0.1654,0.1643,0.1753,0.1752,0.1751,0.175,0,0.1281,0.1309,0.1288,0.1247,0.1229,0.1176,0.1208,0.1232,0.135,0.1478,0.1582,0.163,0.1691,0.1734,0.1749,0.1758,0.1872,0.1814,0.1822,0.1795,0.1693,0.164,0.1634,0.1735,0.1737,0.1739,0.1739,0,0.1252,0.1231,0.1229,0.1161,0.1144,0.1102,0.1098,0.1133,0.1189,0.142,0.1434,0.1569,0.1682,0.165,0.1674,0.1665,0.163,0.1569,0.159,0.1607,0.1549,0.1394,0.1346,0,0,0,0,0,0.1206,0.1172,0.1125,0.1049,0.1039,0.1033,0.1058,0.1073,0.1194,0.1238,0.135,0.1402,0.145,0.1497,0.1451,0.1557,0.1614,0.149,0.1549,0.1651,0.1669,0.1615,0,0,0,0,0,0,0.1166,0.1152,0.1102,0.0979,0.0926,0.0901,0.0923,0.0996,0.1012,0.1164,0.1191,0.1312,0.1363,0.1486,0.1435,0.1445,0.1445,0.1567,0.1562,0.1642,0.1657,0.1671,0.1622,0,0,0,0,0]},{"header":{"parameterUnit":"m.s-1","parameterCategory":2,"la1":30.2991,"la2":30.254,"lo1":-89.0895,"lo2":-89.0444,"dy":0.0017,"dx":0.0017,"nx":28,"ny":28,"refTime":"2025-05-18T03:00:00:Z","depth":"4","parameterNumber":3,"parameterNumberName":"V-component_of_CURRENTS"},"data":[0,0,0,0,0,0,0,0,0,0,0,0,0,0,0,0,0,0,0,0,0,0,0,0,0,0,0,0,0,0,0,0,0,0,0,0,0,0,0,0,0,0,0,0,0,0,0,0,0,0,0,0,0,0,0,0,0,0,0.0033,0.0033,0,0.0055,0.0055,0.0056,0.007,0.007,0.0069,0.0069,0.0289,0.0295,0.0301,0,0,0,0,0,0,0,0,0,0,0,0,0,0.0043,0.0043,0.0033,0.0033,0.0032,0.0055,0.0055,0.0056,0.007,0.007,0.0069,0.0069,0.0287,0.0294,0.0302,0,0,0,0,0,0,0,0,0,0,0,0,0,0.0054,0.0043,0.0033,0.0038,0.0039,0.0054,0.0055,0.0056,0.007,0.007,0.0069,0.0069,0.0284,0.0293,0.0303,0.0371,0,0,0.0331,0.0335,0,0,0,0,0,0,0,0,0.0053,0.0054,0.0038,0.0038,0.0038,0.0055,0.0139,0.017,0.007,0.0064,0.0069,0.0068,0.0226,0.024,0.025,0.0382,0.0391,0.0332,0.0337,0.0341,0.0344,0,0,0,0,0,0,0,0.0052,0.0053,0.0047,0.0037,0.0038,0.0053,0.0054,0.0145,0.0156,0.0064,0.0064,0.0059,0.0228,0.0241,0.0256,0.0394,0.0332,0.034,0.0346,0.0349,0.0538,0.0537,0,0,0,0,0,0,0.0038,0.0053,0.0046,0.0047,0.0039,0.0053,0.0054,0.0054,0.015,0.0161,0.0059,0.0059,0.0225,0.0245,0.0264,0.0356,0.0341,0.035,0.0355,0.0538,0.0538,0.0537,0,0,0,0,0,0,0.0038,0.0037,0.0045,0.0046,0.0047,0.0052,0.0053,0.0055,0.0065,0.0143,0.0159,0.0066,0.0225,0.0251,0.0347,0.0364,0.0354,0.0363,0.0539,0.0538,0.0537,0.0538,0,0,0,0,0,0,0.0039,0.0038,0.004,0.0045,0.0046,0.0056,0.0053,0.0055,0.006,0.006,0.0155,0.0174,0.0227,0.0333,0.0356,0.0377,0.037,0.054,0.0539,0.0538,0.0539,0.0537,0.0536,0,0,0,0,0,0.0039,0.0043,0.004,0.0039,0.0047,0.0056,0.0059,0.0064,0.0061,0.0071,0.0134,0.0171,0.034,0.0342,0.0369,0.0393,0.054,0.0539,0.0538,0.0539,0.0538,0.0536,0,0,0,0,0,0,0.005,0.0045,0.0042,0.0044,0.0048,0.0056,0.0064,0.0064,0.0118,0.0126,0.0197,0.0222,0.0306,0.0342,0.0341,0.0433,0.0434,0.0438,0.0426,0.0425,0.0424,0.0411,0.0378,0,0,0,0,0,0.0052,0.0054,0.0051,0.0054,0.0054,0.0059,0.0064,0.0066,0.0104,0.0124,0.0188,0.0251,0.0321,0.0367,0.0434,0.051,0.0495,0.0527,0.0526,0.0525,0.0527,0.0498,0.0494,0.0533,0.0533,0.0533,0,0,0.0056,0.0053,0.0054,0.0057,0.0061,0.0081,0.0063,0.0069,0.01,0.0148,0.0223,0.0266,0.0339,0.0414,0.0451,0.0451,0.0503,0.0523,0.0522,0.0525,0.0496,0.0492,0.0489,0.0532,0.0532,0.0532,0,0,0.0067,0.0064,0.007,0.0077,0.0078,0.0091,0.0091,0.0104,0.0124,0.0193,0.0224,0.0264,0.0387,0.042,0.046,0.0489,0.0498,0.0507,0.0504,0.0476,0.0472,0.0469,0.0435,0.0428,0.0505,0.0505,0.0505,0,0.0073,0.0083,0.0075,0.0087,0.0102,0.0098,0.0121,0.0147,0.0192,0.0216,0.0218,0.0326,0.0385,0.0455,0.046,0.049,0.0473,0.0513,0.0475,0.0471,0.0468,0.0433,0.0426,0.0505,0.0505,0.0505,0.0505,0,0.0093,0.0105,0.011,0.0133,0.015,0.0167,0.0192,0.0223,0.0244,0.0259,0.0315,0.0361,0.0416,0.0429,0.0473,0.0482,0.0476,0.0479,0.0481,0.0464,0.0428,0.0421,0.0504,0.0505,0.0505,0.0505,0,0,0.0104,0.0122,0.0126,0.015,0.0177,0.0199,0.0252,0.0295,0.0331,0.0347,0.0378,0.0449,0.043,0.0469,0.049,0.0465,0.0429,0.0469,0.0467,0.0438,0.0361,0.036,0.0352,0.0428,0.0428,0.0427,0.0341,0,0.0127,0.0159,0.0169,0.0226,0.025,0.0274,0.033,0.0366,0.0396,0.0428,0.0421,0.0468,0.0459,0.0482,0.0451,0.0455,0.0413,0.0452,0.0378,0.0376,0.038,0.0344,0.0424,0.0336,0.0334,0.0333,0.0332,0,0.0152,0.0173,0.0217,0.0279,0.0293,0.0336,0.0416,0.0464,0.0497,0.0512,0.051,0.0506,0.0497,0.0474,0.0418,0.0447,0.0402,0.0372,0.0368,0.0364,0.0362,0.0357,0.0319,0.032,0.0321,0.0322,0.0323,0,0.0173,0.0219,0.026,0.0278,0.0339,0.0382,0.0434,0.0486,0.054,0.0558,0.0572,0.0541,0.0539,0.0467,0.0412,0.0418,0.0326,0.0324,0.0262,0.0261,0.029,0.0294,0.0247,0.0247,0.0248,0.0248,0.0248,0,0.0202,0.024,0.0275,0.03,0.0377,0.0411,0.0499,0.0542,0.0592,0.064,0.0611,0.0616,0.0538,0.0481,0.0409,0.0318,0.0315,0.0252,0.0237,0.029,0.0295,0.0284,0.0289,0.0245,0.0245,0.0246,0.0246,0,0.022,0.0237,0.0288,0.0351,0.0386,0.0443,0.0557,0.0618,0.0653,0.0707,0.0713,0.068,0.0607,0.0513,0.0402,0.0329,0.0235,0.0195,0.0253,0.0245,0.0184,0.019,0.0112,0.0111,0.0111,0.011,0.011,0,0.0232,0.0255,0.0323,0.0368,0.0403,0.0495,0.057,0.0647,0.07,0.074,0.0754,0.0706,0.0665,0.0496,0.0394,0.0235,0.0213,0.0149,0.0164,0.0176,0.0169,0.0177,0.0184,0.0109,0.0108,0.0108,0.0108,0,0.0258,0.0273,0.0311,0.0392,0.0472,0.0568,0.0665,0.0707,0.078,0.0806,0.0789,0.0711,0.0623,0.0492,0.0375,0.0259,0.0187,0.0142,0.0142,0.0155,0.0171,0.0166,0.0174,0.0106,0.0106,0.0106,0.0106,0,0.0275,0.0299,0.0343,0.0421,0.0515,0.061,0.0667,0.0728,0.0787,0.0817,0.0801,0.0715,0.0668,0.0503,0.0391,0.0286,0.0254,0.0204,0.0201,0.0202,0.026,0.0294,0.0246,0,0,0,0,0,0.0291,0.0321,0.0383,0.0463,0.0552,0.0614,0.0719,0.0763,0.0813,0.0808,0.0812,0.0728,0.0575,0.0505,0.0398,0.037,0.0231,0.0239,0.0171,0.0092,0.0095,0.0148,0,0,0,0,0,0,0.0303,0.0351,0.0374,0.048,0.0543,0.0656,0.0723,0.0763,0.0756,0.0778,0.0699,0.0678,0.053,0.0633,0.0386,0.0356,0.0293,0.0175,0.0172,0.0091,0.0093,0.0096,0.0151,0,0,0,0,0]}]]